Tiempo atmosférico en la estación meteorológica de Vallehermoso, Alto Igualero, Santa Cruz de Tenerife (1475 m.)



Fecha
DESCASC
Temp. máxima en grados centígrados (hora)
DESCASC
Temp. mínima en grados centígrados (hora)
DESCASC
Temp. media en grados centígrados
DESCASC
Racha de viento máxima en m/sg (hora)
DESCASC
Velocidad máxima media en intervalos de 10 minutos(hora)
DESCASC
Precipitaciones diarias en mm
DESCASC
Precipitaciones de 00:00 a 06:00 en mm
DESCASC
Precipitaciones de 06:00 a 12:00 en mm
DESCASC
Precipitaciones de 12:00 a 18:00 en mm
DESCASC
Precipitaciones de 18:00 a 24:00 en mm
DESCASC
25-04-2019 16.8 (13:40) 6.6 (21:10) 11.7 12.22 (23:59) 10 (23:59) 0 0 0 0 0
24-04-2019 15.8 (17:20) 5 (00:10) 10.4 15.83 (03:50) 12.22 (02:00) 0 0 0 0 0
23-04-2019 11.6 (00:50) 5.3 (23:20) 8.5 18.06 (03:10) 14.72 (03:20) 0 0 0 0 0
22-04-2019 16.2 (14:40) 10.6 (00:00) 13.4 17.22 (23:59) 14.17 (23:50) 0 0 0 0 0
21-04-2019 10.6 (23:59) 5.4 (00:00) 8 20.83 (01:50) 14.44 (01:50) 0.8 0.6 0.2 0 0
20-04-2019 7.7 (15:40) 4.5 (00:00) 6.1 19.72 (00:40) 14.72 (03:20) 0.6 0 0.2 0 0.4
19-04-2019 10.3 (15:10) 4.1 (00:00) 7.2 23.33 (06:50) 16.94 (06:40) 0.4 0.2 0.2 0 0
18-04-2019 7.9 (17:10) 5 (00:00) 6.5 18.61 (23:00) 14.17 (23:00) 0.2 0 0.2 0 0
17-04-2019 12.7 (16:10) 5.9 (00:00) 9.3 17.5 (21:00) 13.61 (21:00) 0 0 0 0 0
16-04-2019 15.5 (15:40) 5.8 (00:00) 10.7 16.11 (16:10) 13.06 (23:59) 0 0 0 0 0
15-04-2019 17.2 (18:20) 6.6 (00:00) 11.9 10.83 (02:40) 8.89 (02:30) 0 0 0 0 0
14-04-2019 18.4 (15:30) 10.1 (00:00) 14.3 9.72 (21:00) 7.78 (22:30) 0 0 0 0 0
13-04-2019 15.7 (17:20) 5.6 (00:00) 10.6 19.17 (07:50) 14.72 (07:50) 0.4 0.2 0.2 0 0
12-04-2019 10.5 (15:40) 4.1 (00:00) 7.3 20.28 (04:30) 14.72 (22:40) 0.2 0.2 0 0 0
11-04-2019 8.6 (15:10) 3.9 (00:00) 6.3 17.5 (23:40) 13.89 (23:40) 0.2 0.2 0 0 0
10-04-2019 7.5 (16:10) 4.3 (00:00) 5.9 16.39 (08:40) 12.5 (08:40) 0.4 0.2 0.2 0 0
09-04-2019 11.4 (15:00) 4.6 (00:00) 8 14.72 (23:00) 11.39 (23:00) 0.2 0 0 0 0.2
08-04-2019 13 (14:40) 4.5 (00:00) 8.8 9.44 (21:20) 8.61 (21:30) 0.2 0 0.2 0 0
07-04-2019 15.1 (16:50) 4.1 (00:00) 9.6 10 (00:10) 7.78 (00:10) 0 0 0 0 0
06-04-2019 7.4 (16:40) 3.3 (00:00) 5.4 19.44 (01:50) 11.94 (05:50) 0.8 0.8 0 0 0
05-04-2019 7 (15:20) 3.9 (00:00) 5.5 22.22 (20:20) 15.28 (20:10) 0.8 0.4 0 0.2 0.2
04-04-2019 7.3 (15:00) 4.2 (00:00) 5.8 18.89 (09:10) 13.33 (08:10) 3 0.8 1.6 0 0.6
03-04-2019 8.3 (14:10) 3.6 (07:50) 6 13.89 (17:00) 10.28 (17:10) 0.4 0.2 0.2 0 0
02-04-2019 9.7 (15:00) 5 (00:00) 7.3 8.33 (19:50) 6.39 (02:10) 14 0.2 6.2 7.6 0
01-04-2019 10.1 (11:20) 4.9 (00:00) 7.5 8.89 (16:30) 5.83 (19:50) 14.2 0 0 4.8 9.4
31-03-2019 10.8 (18:10) 4.9 (00:00) 7.9 10.56 (10:40) 8.61 (03:40) 0 0 0 0 0
30-03-2019 10.3 (14:40) 4.5 (00:00) 7.4 11.67 (08:20) 7.78 (08:20) 1.4 0.4 1 0 0
29-03-2019 12.4 (15:30) 5 (00:00) 8.7 9.17 (16:00) 6.11 (16:00) 0.8 0.8 0 0 0
28-03-2019 9.4 (15:50) 5.9 (00:00) 7.6 8.89 (14:10) 5 (14:20) 9.6 0 1.2 7.8 0.6
27-03-2019 11.4 (14:30) 6.2 (00:00) 8.8 13.61 (03:20) 10 (03:10) 0 0 0 0 0

Gráficas

Temp. máximas Temp. mínimas Temp. medias Precipitaciones Rachas de viento máximas Velocidades máximas media en intervalos de 10 minutos

Datos horarios

Fecha y hora oficial Temperatura (ºC) Velocidad del viento (km/h) Dirección del viento Racha (km/h) Dirección de racha Precipitación (mm) Presión (hPa) Tendencia (hPa) Humedad (%)
2019-04-25 23:00:00 7.1 33 Nordeste 41 Nordeste 0 -- -- 100
2019-04-25 22:00:00 7 33 Nordeste 39 Nordeste 0 -- -- 100
2019-04-25 21:00:00 6.7 31 Nordeste 41 Nordeste 0 -- -- 100
2019-04-25 20:00:00 7.7 29 Nordeste 36 Nordeste 0 -- -- 85
2019-04-25 19:00:00 8.9 26 Nordeste 32 Nordeste 0 -- -- 83
2019-04-25 18:00:00 11.2 19 Nordeste 26 Nordeste 0 -- -- 65
2019-04-25 17:00:00 13.4 14 Nordeste 25 Nordeste 0 -- -- 59
2019-04-25 16:00:00 14.7 13 Nordeste 27 Este 0 -- -- 62
2019-04-25 15:00:00 15.7 15 Este 27 Este 0 -- -- 60
2019-04-25 14:00:00 16.8 12 Este 27 Nordeste 0 -- -- 44
2019-04-25 13:00:00 16 14 Nordeste 28 Nordeste 0 -- -- 38
2019-04-25 12:00:00 -- 16 Nordeste 28 Nordeste 0 -- -- --
2019-04-25 11:00:00 13.9 18 Nordeste 33 Nordeste 0 -- -- 25
2019-04-25 10:00:00 12.1 23 Nordeste 34 Nordeste 0 -- -- 12
2019-04-25 09:00:00 11.8 22 Nordeste 29 Nordeste 0 -- -- 9
2019-04-25 08:00:00 10.7 20 Nordeste 23 Nordeste 0 -- -- 7
2019-04-25 07:00:00 10.7 16 Nordeste 26 Nordeste 0 -- -- 7
2019-04-25 06:00:00 10.8 24 Nordeste 30 Nordeste 0 -- -- 7
2019-04-25 05:00:00 10.7 28 Nordeste 36 Nordeste 0 -- -- 7
2019-04-25 04:00:00 10.6 31 Nordeste 37 Nordeste 0 -- -- 9
2019-04-25 03:00:00 10.7 33 Nordeste 38 Norte 0 -- -- 8
2019-04-25 02:00:00 10.9 32 Nordeste 40 Nordeste 0 -- -- 6
2019-04-25 01:00:00 11.2 32 Nordeste 39 Nordeste 0 -- -- 7
2019-04-25 00:00:00 11.2 31 Nordeste 37 Nordeste 0 -- -- 10
2019-04-24 23:00:00 11.3 28 Nordeste 34 Nordeste 0 -- -- 8
2019-04-24 22:00:00 11.1 30 Norte 33 Norte 0 -- -- 12
2019-04-24 21:00:00 -- 30 Norte 35 Norte 0 -- -- --
2019-04-24 20:00:00 11.7 22 Norte 31 Nordeste 0 -- -- 10
2019-04-24 19:00:00 13.1 12 Norte 22 Noroeste 0 -- -- 14
2019-04-24 18:00:00 14.4 13 Noroeste 24 Noroeste 0 -- -- 31
2019-04-24 17:00:00 15.4 9 Noroeste 22 Noroeste 0 -- -- 69
2019-04-24 16:00:00 14.5 11 Norte 20 Noroeste 0 -- -- 59
2019-04-24 15:00:00 14.6 8 Norte 32 Nordeste 0 -- -- 52
2019-04-24 14:00:00 13.2 18 Este 32 Este 0 -- -- 32
2019-04-24 13:00:00 12.8 21 Este 34 Este 0 -- -- 37
2019-04-24 12:00:00 12 26 Este 40 Este 0 -- -- 35
2019-04-24 11:00:00 11.2 28 Nordeste 40 Nordeste 0 -- -- 27
2019-04-24 10:00:00 10.5 28 Nordeste 44 Norte 0 -- -- 30
2019-04-24 09:00:00 9.2 32 Norte 46 Norte 0 -- -- 46
2019-04-24 08:00:00 8.7 37 Norte 48 Norte 0 -- -- 75
2019-04-24 07:00:00 8 38 Norte 49 Nordeste 0 -- -- 73
2019-04-24 06:00:00 6.9 41 Nordeste 54 Nordeste 0 -- -- 88
2019-04-24 05:00:00 5.4 38 Nordeste 51 Nordeste 0 -- -- 100
2019-04-24 04:00:00 5.4 37 Nordeste 57 Nordeste 0 -- -- 100
2019-04-24 03:00:00 5.8 36 Nordeste 55 Norte 0 -- -- 100
2019-04-24 02:00:00 7.1 44 Norte 51 Norte 0 -- -- 80
2019-04-24 01:00:00 6.8 40 Norte 50 Norte 0 -- -- 74
2019-04-24 00:00:00 5.3 38 Norte 44 Norte 0 -- -- 100
2019-04-23 23:00:00 5.8 32 Norte 50 Norte 0 -- -- 100
2019-04-23 22:00:00 5.8 39 Norte 56 Norte 0 -- -- 100
2019-04-23 21:00:00 5.9 43 Norte 57 Norte 0 -- -- 100
2019-04-23 20:00:00 5.9 39 Norte 55 Norte 0 -- -- 100
2019-04-23 19:00:00 6.1 42 Norte 52 Norte 0 -- -- 100
2019-04-23 18:00:00 6.4 41 Norte 52 Norte 0 -- -- 100
2019-04-23 17:00:00 7.5 36 Norte 50 Norte 0 -- -- 100
2019-04-23 16:00:00 8.6 30 Norte 48 Norte 0 -- -- 100
2019-04-23 15:00:00 9.3 32 Norte 46 Norte 0 -- -- 100
2019-04-23 14:00:00 9.5 31 Norte 48 Norte 0 -- -- 100
2019-04-23 13:00:00 9.7 32 Norte 51 Norte 0 -- -- 100
2019-04-23 12:00:00 9 41 Norte 59 Norte 0 -- -- 100
2019-04-23 11:00:00 8.3 35 Norte 55 Norte 0 -- -- 100
2019-04-23 10:00:00 7.3 39 Norte 56 Norte 0 -- -- 100
2019-04-23 09:00:00 6.5 40 Norte 55 Norte 0 -- -- 100
2019-04-23 08:00:00 6.7 41 Norte 58 Norte 0 -- -- 100
2019-04-23 07:00:00 6.8 39 Norte 60 Noroeste 0 -- -- 100
2019-04-23 06:00:00 7.1 48 Norte 65 Noroeste 0 -- -- 96
2019-04-23 05:00:00 9.3 50 Norte 60 Noroeste 0 -- -- 66
2019-04-23 04:00:00 8.1 43 Norte 65 Noroeste 0 -- -- 81
2019-04-23 03:00:00 6.9 45 Norte 59 Noroeste 0 -- -- 100
2019-04-23 02:00:00 9.7 52 Norte 60 Noroeste 0 -- -- 70
2019-04-23 01:00:00 11.4 44 Noroeste 62 Norte 0 -- -- 46
2019-04-23 00:00:00 11 51 Norte 62 Norte 0 -- -- 45
2019-04-22 23:00:00 11.8 46 Noroeste 59 Noroeste 0 -- -- 39
2019-04-22 22:00:00 12 42 Noroeste 55 Noroeste 0 -- -- 39
2019-04-22 21:00:00 12.1 41 Norte 53 Norte 0 -- -- 38
2019-04-22 20:00:00 12.9 37 Norte 49 Norte 0 -- -- 33
2019-04-22 19:00:00 13.6 35 Norte 46 Norte 0 -- -- 37
2019-04-22 18:00:00 14 27 Norte 38 Norte 0 -- -- 38
2019-04-22 17:00:00 15 23 Norte 39 Norte 0 -- -- 43
2019-04-22 16:00:00 15.6 23 Norte 40 Norte 0 -- -- 35
2019-04-22 15:00:00 16 18 Norte 31 Norte 0 -- -- 34
2019-04-22 14:00:00 15.9 18 Norte 35 Norte 0 -- -- 31
2019-04-22 13:00:00 15.6 18 Norte 31 Nordeste 0 -- -- 35
2019-04-22 12:00:00 15.6 18 Nordeste 36 Norte 0 -- -- 36
2019-04-22 11:00:00 14.3 20 Nordeste 41 Nordeste 0 -- -- 40
2019-04-22 10:00:00 13.1 27 Nordeste 39 Nordeste 0 -- -- 41
2019-04-22 09:00:00 12.3 26 Nordeste 41 Nordeste 0 -- -- 40
2019-04-22 08:00:00 12.1 28 Norte 38 Nordeste 0 -- -- 40
2019-04-22 07:00:00 12.1 27 Nordeste 37 Norte 0 -- -- 37
2019-04-22 06:00:00 12.5 30 Nordeste 41 Nordeste 0 -- -- 35
2019-04-22 05:00:00 12.9 31 Nordeste 40 Nordeste 0 -- -- 34
2019-04-22 04:00:00 11.5 35 Nordeste 44 Nordeste 0 -- -- 38
2019-04-22 03:00:00 11.1 36 Nordeste 45 Nordeste 0 -- -- 37
2019-04-22 02:00:00 10.8 36 Nordeste 45 Nordeste 0 -- -- 49
2019-04-22 01:00:00 11.2 36 Nordeste 42 Nordeste 0 -- -- 51
2019-04-22 00:00:00 10.6 34 Nordeste 45 Nordeste 0 -- -- 59
2019-04-21 23:00:00 10.1 39 Nordeste 48 Nordeste 0 -- -- 67
2019-04-21 22:00:00 10 40 Nordeste 52 Nordeste 0 -- -- 71
2019-04-21 21:00:00 8.7 40 Nordeste 50 Nordeste 0 -- -- 100
2019-04-21 20:00:00 7.6 34 Nordeste 46 Nordeste 0 -- -- 100
2019-04-21 19:00:00 8.2 29 Nordeste 39 Nordeste 0 -- -- 100
2019-04-21 18:00:00 8.7 26 Nordeste 42 Nordeste 0 -- -- 100
2019-04-21 17:00:00 8.4 27 Nordeste 43 Nordeste 0 -- -- 100
2019-04-21 16:00:00 8 28 Nordeste 42 Nordeste 0 -- -- 100
2019-04-21 15:00:00 8.2 29 Este 43 Este 0 -- -- 100
2019-04-21 14:00:00 8.2 32 Nordeste 50 Nordeste 0 -- -- 100
2019-04-21 13:00:00 8.4 34 Nordeste 60 Nordeste 0 -- -- 100
2019-04-21 12:00:00 7.5 38 Nordeste 54 Nordeste 0 -- -- 100
2019-04-21 11:00:00 6.8 37 Nordeste 53 Nordeste 0 -- -- 100
2019-04-21 10:00:00 6.2 31 Nordeste 52 Nordeste 0 -- -- 100
2019-04-21 09:00:00 6.3 41 Nordeste 62 Nordeste 0.2 -- -- 100
2019-04-21 08:00:00 6.8 41 Nordeste 60 Nordeste 0 -- -- 100
2019-04-21 07:00:00 6 42 Nordeste 62 Nordeste 0 -- -- 100
2019-04-21 06:00:00 6 44 Nordeste 63 Nordeste 0 -- -- 100
2019-04-21 05:00:00 5.5 45 Nordeste 64 Nordeste 0 -- -- 100
2019-04-21 04:00:00 5.9 43 Nordeste 68 Nordeste 0 -- -- 100
2019-04-21 03:00:00 5.9 50 Nordeste 73 Nordeste 0.2 -- -- 100
2019-04-21 02:00:00 6 52 Nordeste 75 Nordeste 0.2 -- -- 100
2019-04-21 01:00:00 6.7 39 Nordeste 64 Nordeste 0.2 -- -- 100
2019-04-21 00:00:00 6.5 39 Nordeste 63 Nordeste 0.2 -- -- 100
2019-04-20 23:00:00 6.4 42 Nordeste 66 Nordeste 0 -- -- 100
2019-04-20 22:00:00 6.5 40 Nordeste 58 Nordeste 0.2 -- -- 100
2019-04-20 21:00:00 6.1 44 Nordeste 58 Nordeste 0 -- -- 100
2019-04-20 20:00:00 6.1 40 Nordeste 60 Nordeste 0 -- -- 100
2019-04-20 19:00:00 6.5 30 Nordeste 44 Nordeste 0 -- -- 100
2019-04-20 18:00:00 6.9 29 Nordeste 49 Nordeste 0 -- -- 100
2019-04-20 17:00:00 7.4 18 Este 48 Nordeste 0 -- -- 100
2019-04-20 16:00:00 7.3 20 Nordeste 41 Nordeste 0 -- -- 100
2019-04-20 15:00:00 7.6 22 Este 64 Nordeste 0 -- -- 100
2019-04-20 14:00:00 7.5 30 Este 48 Nordeste 0 -- -- 100
2019-04-20 13:00:00 6.6 22 Nordeste 47 Este 0 -- -- 100
2019-04-20 12:00:00 6.4 21 Nordeste 63 Nordeste 0 -- -- 100
2019-04-20 11:00:00 5.9 47 Nordeste 62 Nordeste 0 -- -- 100
2019-04-20 10:00:00 5.2 45 Nordeste 59 Nordeste 0 -- -- 100
2019-04-20 09:00:00 5.7 44 Nordeste 59 Nordeste 0.2 -- -- 100
2019-04-20 08:00:00 5 44 Nordeste 59 Nordeste 0 -- -- 100
2019-04-20 07:00:00 5.2 46 Nordeste 65 Nordeste 0 -- -- 100
2019-04-20 06:00:00 5.4 48 Nordeste 63 Nordeste 0 -- -- 100
2019-04-20 05:00:00 4.9 50 Nordeste 65 Nordeste 0 -- -- 100
2019-04-20 04:00:00 4.9 50 Nordeste 68 Nordeste 0 -- -- 100
2019-04-20 03:00:00 5.2 52 Nordeste 66 Nordeste 0 -- -- 100
2019-04-20 02:00:00 5.3 46 Nordeste 67 Nordeste 0 -- -- 100
2019-04-20 01:00:00 5.4 49 Nordeste 71 Nordeste 0 -- -- 100
2019-04-20 00:00:00 4.9 51 Nordeste 74 Nordeste 0 -- -- 100
2019-04-19 23:00:00 4.8 56 Nordeste 74 Nordeste 0 -- -- 100
2019-04-19 22:00:00 4.7 49 Nordeste 66 Nordeste 0 -- -- 100
2019-04-19 21:00:00 4.6 49 Nordeste 63 Nordeste 0 -- -- 100
2019-04-19 20:00:00 5.5 45 Nordeste 65 Nordeste 0 -- -- 100
2019-04-19 19:00:00 5.7 41 Nordeste 57 Nordeste 0 -- -- 100
2019-04-19 18:00:00 6.8 28 Nordeste 44 Nordeste 0 -- -- 98
2019-04-19 17:00:00 8 25 Nordeste 40 Nordeste 0 -- -- 90
2019-04-19 16:00:00 9.9 12 Nordeste 25 Este 0 -- -- 82
2019-04-19 15:00:00 10 12 Nordeste 36 Nordeste 0 -- -- 81
2019-04-19 14:00:00 8.9 24 Nordeste 49 Nordeste 0 -- -- 88
2019-04-19 13:00:00 8 27 Nordeste 55 Nordeste 0 -- -- 96
2019-04-19 12:00:00 7.1 37 Nordeste 71 Nordeste 0 -- -- 100
2019-04-19 11:00:00 5.9 58 Nordeste 82 Nordeste 0 -- -- 100
2019-04-19 10:00:00 6.1 60 Nordeste 82 Nordeste 0 -- -- 100
2019-04-19 09:00:00 5.6 60 Nordeste 82 Nordeste 0 -- -- 100
2019-04-19 08:00:00 5.2 55 Nordeste 80 Nordeste 0.2 -- -- 100
2019-04-19 07:00:00 5.3 60 Nordeste 84 Nordeste 0 -- -- 100
2019-04-19 06:00:00 4.7 55 Nordeste 72 Nordeste 0 -- -- 100
2019-04-19 05:00:00 5 54 Nordeste 77 Nordeste 0 -- -- 100
2019-04-19 04:00:00 5.4 54 Nordeste 76 Nordeste 0.2 -- -- 100
2019-04-19 03:00:00 6.3 52 Nordeste 71 Nordeste 0 -- -- 100
2019-04-19 02:00:00 5.6 55 Nordeste 73 Nordeste 0 -- -- 100
2019-04-19 01:00:00 6.4 52 Nordeste 73 Nordeste 0 -- -- 100
2019-04-19 00:00:00 5.8 50 Nordeste 65 Nordeste 0 -- -- 100
2019-04-18 23:00:00 5.5 51 Nordeste 67 Nordeste 0 -- -- 100
2019-04-18 22:00:00 5.9 44 Nordeste 63 Nordeste 0 -- -- 100
2019-04-18 21:00:00 6.3 41 Nordeste 58 Nordeste 0 -- -- 100
2019-04-18 20:00:00 5.7 39 Nordeste 57 Nordeste 0 -- -- 100
2019-04-18 19:00:00 6.1 34 Nordeste 48 Nordeste 0 -- -- 100
2019-04-18 18:00:00 6.5 28 Nordeste 47 Este 0 -- -- 100
2019-04-18 17:00:00 7.6 18 Nordeste 41 Este 0 -- -- 100
2019-04-18 16:00:00 7.5 27 Nordeste 50 Nordeste 0 -- -- 100
2019-04-18 15:00:00 7.3 31 Nordeste 47 Nordeste 0 -- -- 100
2019-04-18 14:00:00 6.9 24 Este 48 Este 0 -- -- 100
2019-04-18 13:00:00 6.6 34 Nordeste 56 Nordeste 0 -- -- 100
2019-04-18 12:00:00 6.3 34 Nordeste 58 Nordeste 0 -- -- 100
2019-04-18 11:00:00 6.1 42 Nordeste 60 Nordeste 0.2 -- -- 100
2019-04-18 10:00:00 6 35 Nordeste 57 Nordeste 0 -- -- 100
2019-04-18 09:00:00 5.5 46 Nordeste 59 Nordeste 0 -- -- 100
2019-04-18 08:00:00 5.7 44 Nordeste 63 Nordeste 0 -- -- 100
2019-04-18 07:00:00 5.6 44 Nordeste 60 Nordeste 0 -- -- 100
2019-04-18 06:00:00 5.7 18 Nordeste 40 Norte 0 -- -- 100
2019-04-18 05:00:00 5.3 23 Nordeste 41 Nordeste 0 -- -- 100
2019-04-18 04:00:00 6 20 Nordeste 44 Este 0 -- -- 100
2019-04-18 03:00:00 5.8 26 Nordeste 47 Nordeste 0 -- -- 100
2019-04-18 02:00:00 5.7 35 Nordeste 53 Nordeste 0 -- -- 100
2019-04-18 01:00:00 6.1 38 Nordeste 58 Nordeste 0 -- -- 100
2019-04-18 00:00:00 6.1 34 Nordeste 57 Nordeste 0 -- -- 100
2019-04-17 23:00:00 6.3 37 Nordeste 56 Nordeste 0 -- -- 100
2019-04-17 22:00:00 6.3 33 Nordeste 59 Nordeste 0 -- -- 100
2019-04-17 21:00:00 6.9 49 Nordeste 63 Nordeste 0 -- -- 100
2019-04-17 20:00:00 6.7 28 Nordeste 43 Norte 0 -- -- 100
2019-04-17 19:00:00 8.2 14 Norte 30 Norte 0 -- -- 95
2019-04-17 18:00:00 10.3 15 Norte 24 Noroeste 0 -- -- 82
2019-04-17 17:00:00 11.6 13 Noroeste 29 Oeste 0 -- -- 83
2019-04-17 16:00:00 11.7 15 Noroeste 31 Noroeste 0 -- -- 82
2019-04-17 15:00:00 12.2 19 Noroeste 34 Noroeste 0 -- -- 89
2019-04-17 14:00:00 10.9 25 Oeste 42 Noroeste 0 -- -- 100
2019-04-17 13:00:00 9.7 27 Noroeste 41 Oeste 0 -- -- 100
2019-04-17 12:00:00 10.2 23 Oeste 40 Oeste 0 -- -- 100
2019-04-17 11:00:00 9.9 24 Noroeste 47 Noroeste 0 -- -- 100
2019-04-17 10:00:00 9.4 34 Noroeste 46 Noroeste 0 -- -- 100
2019-04-17 09:00:00 8.8 43 Noroeste 57 Noroeste 0 -- -- 100
2019-04-17 08:00:00 8 33 Noroeste 39 Noroeste 0 -- -- 100
2019-04-17 07:00:00 9.5 30 Noroeste 39 Noroeste 0 -- -- 81
2019-04-17 06:00:00 10.3 27 Noroeste 40 Noroeste 0 -- -- 57
2019-04-17 05:00:00 10 33 Noroeste 44 Noroeste 0 -- -- 57
2019-04-17 04:00:00 11.1 36 Noroeste 53 Noroeste 0 -- -- 48
2019-04-17 03:00:00 10.3 41 Noroeste 47 Noroeste 0 -- -- 53
2019-04-17 02:00:00 10.5 35 Noroeste 52 Noroeste 0 -- -- 45
2019-04-17 01:00:00 10.6 44 Noroeste 57 Noroeste 0 -- -- 39
2019-04-17 00:00:00 11.1 47 Noroeste 58 Oeste 0 -- -- 19
2019-04-16 23:00:00 8.7 42 Noroeste 55 Noroeste 0 -- -- 51
2019-04-16 22:00:00 6.9 31 Noroeste 39 Noroeste 0 -- -- 100
2019-04-16 21:00:00 7.3 23 Oeste 37 Oeste 0 -- -- 100
2019-04-16 20:00:00 8.8 18 Noroeste 44 Oeste 0 -- -- 89
2019-04-16 19:00:00 13.3 27 Oeste 43 Oeste 0 -- -- 53
2019-04-16 18:00:00 15.2 24 Oeste 47 Oeste 0 -- -- 53
2019-04-16 17:00:00 15.3 31 Oeste 58 Oeste 0 -- -- 66
2019-04-16 16:00:00 15.2 34 Oeste 51 Sudoeste 0 -- -- 53
2019-04-16 15:00:00 14.9 15 Oeste 35 Oeste 0 -- -- 73
2019-04-16 14:00:00 14.3 22 Oeste 32 Sudoeste 0 -- -- 62
2019-04-16 13:00:00 13 15 Oeste 28 Oeste 0 -- -- 77
2019-04-16 12:00:00 13.2 16 Oeste 31 Oeste 0 -- -- 66
2019-04-16 11:00:00 12.1 16 Sudoeste 31 Sudoeste 0 -- -- 62
2019-04-16 10:00:00 10.5 20 Sudoeste 32 Oeste 0 -- -- 61
2019-04-16 09:00:00 10 22 Oeste 36 Oeste 0 -- -- 73
2019-04-16 08:00:00 9.7 26 Oeste 33 Oeste 0 -- -- 71
2019-04-16 07:00:00 9.9 26 Oeste 32 Oeste 0 -- -- 55
2019-04-16 06:00:00 10.2 22 Oeste 26 Oeste 0 -- -- 44
2019-04-16 05:00:00 10.4 19 Oeste 22 Oeste 0 -- -- 42
2019-04-16 04:00:00 10.9 17 Sudoeste 22 Sudoeste 0 -- -- 36
2019-04-16 03:00:00 11 18 Sudoeste 21 Sudoeste 0 -- -- 35
2019-04-16 02:00:00 11.2 19 Sudoeste 20 Sudoeste 0 -- -- 36
2019-04-16 01:00:00 11.2 14 Sur 18 Sur 0 -- -- 38
2019-04-16 00:00:00 11.7 12 Sur 13 Sur 0 -- -- 33
2019-04-15 23:00:00 12 4 Sur 5 Sur 0 -- -- 29
2019-04-15 22:00:00 11.7 2 Oeste 4 Oeste 0 -- -- 56
2019-04-15 21:00:00 12.4 0 Calma 6 Noroeste 0 -- -- 88
2019-04-15 20:00:00 14.6 2 Noroeste 14 Oeste 0 -- -- 87
2019-04-15 19:00:00 16.6 7 Oeste 15 Noroeste 0 -- -- 81
2019-04-15 18:00:00 16.3 5 Noroeste 14 Noroeste 0 -- -- 87
2019-04-15 17:00:00 15.9 3 Noroeste 10 Noroeste 0 -- -- 79
2019-04-15 16:00:00 14.3 3 Norte 22 Este 0 -- -- 85
2019-04-15 15:00:00 14.9 9 Nordeste 17 Este 0 -- -- 79
2019-04-15 14:00:00 15.3 4 Noroeste 14 Oeste 0 -- -- 85
2019-04-15 13:00:00 15 5 Nordeste 19 Este 0 -- -- 79
2019-04-15 12:00:00 14.3 10 Nordeste 21 Nordeste 0 -- -- 80
2019-04-15 11:00:00 12.7 14 Nordeste 22 Nordeste 0 -- -- 69
2019-04-15 10:00:00 10 21 Nordeste 25 Nordeste 0 -- -- 76
2019-04-15 09:00:00 10.3 21 Nordeste 30 Nordeste 0 -- -- 55
2019-04-15 08:00:00 9.6 27 Nordeste 30 Nordeste 0 -- -- 61
2019-04-15 07:00:00 7.3 27 Nordeste 37 Nordeste 0 -- -- 100
2019-04-15 06:00:00 7.5 26 Nordeste 33 Nordeste 0 -- -- 95
2019-04-15 05:00:00 10.9 22 Norte 26 Nordeste 0 -- -- 50
2019-04-15 04:00:00 10.3 25 Nordeste 32 Nordeste 0 -- -- 50
2019-04-15 03:00:00 7.8 30 Nordeste 39 Norte 0 -- -- 71
2019-04-15 02:00:00 9.6 28 Norte 35 Norte 0 -- -- 48
2019-04-15 01:00:00 10.2 25 Nordeste 31 Nordeste 0 -- -- 46
2019-04-15 00:00:00 10.9 26 Nordeste 31 Nordeste 0 -- -- 41
2019-04-14 23:00:00 12.1 23 Norte 31 Noroeste 0 -- -- 29
2019-04-14 22:00:00 11.1 27 Noroeste 31 Noroeste 0 -- -- 34
2019-04-14 21:00:00 11.7 27 Noroeste 35 Noroeste 0 -- -- 33
2019-04-14 20:00:00 14.6 9 Noroeste 22 Noroeste 0 -- -- 38
2019-04-14 19:00:00 15.7 16 Oeste 25 Oeste 0 -- -- 39
2019-04-14 18:00:00 16.4 13 Oeste 23 Oeste 0 -- -- 42
2019-04-14 17:00:00 17.3 9 Oeste 23 Sudoeste 0 -- -- 41
2019-04-14 16:00:00 17.3 11 Oeste 21 Sudoeste 0 -- -- 40
2019-04-14 15:00:00 17.2 8 Sudoeste 18 Sudoeste 0 -- -- 60
2019-04-14 14:00:00 17.5 5 Sudoeste 15 Sudeste 0 -- -- 67
2019-04-14 13:00:00 16.4 5 Sudeste 14 Sur 0 -- -- 47
2019-04-14 12:00:00 16.6 5 Sudeste 12 Sudeste 0 -- -- 36
2019-04-14 11:00:00 15.7 6 Sudeste 18 Sudeste 0 -- -- 41
2019-04-14 10:00:00 13.5 9 Sudeste 20 Sudeste 0 -- -- 38
2019-04-14 09:00:00 11.9 11 Sudeste 27 Sudeste 0 -- -- 40
2019-04-14 08:00:00 10.4 13 Sudeste 24 Sudeste 0 -- -- 38
2019-04-14 07:00:00 10.1 17 Sudeste 22 Sudeste 0 -- -- 38
2019-04-14 06:00:00 10.6 14 Sur 17 Sur 0 -- -- 36
2019-04-14 05:00:00 11.9 5 Oeste 12 Este 0 -- -- 32
2019-04-14 04:00:00 12.3 6 Este 9 Oeste 0 -- -- 31
2019-04-14 03:00:00 12.8 3 Sudoeste 17 Oeste 0 -- -- 24
2019-04-14 02:00:00 12.4 8 Noroeste 17 Noroeste 0 -- -- 33
2019-04-14 01:00:00 11.5 14 Noroeste 21 Noroeste 0 -- -- 37
2019-04-14 00:00:00 11.5 15 Noroeste 18 Noroeste 0 -- -- 39
2019-04-13 23:00:00 11.5 18 Noroeste 20 Noroeste 0 -- -- 46
2019-04-13 22:00:00 11.3 15 Norte 17 Noroeste 0 -- -- 55
2019-04-13 21:00:00 13.1 12 Noroeste 14 Oeste 0 -- -- 42
2019-04-13 20:00:00 14.1 5 Oeste 23 Este 0 -- -- 78
2019-04-13 19:00:00 12.4 18 Este 25 Este 0 -- -- 66
2019-04-13 18:00:00 15.1 4 Sudeste 14 Este 0 -- -- 55
2019-04-13 17:00:00 15.1 3 Este 16 Este 0 -- -- 79
2019-04-13 16:00:00 14.9 6 Norte 21 Nordeste 0 -- -- 73
2019-04-13 15:00:00 14.2 4 Nordeste 18 Nordeste 0 -- -- 67
2019-04-13 14:00:00 13.3 4 Norte 15 Noroeste 0 -- -- 90
2019-04-13 13:00:00 13.5 6 Oeste 22 Nordeste 0 -- -- 93
2019-04-13 12:00:00 9.1 20 Este 41 Nordeste 0 -- -- 100
2019-04-13 11:00:00 7.3 31 Nordeste 54 Nordeste 0 -- -- 100
2019-04-13 10:00:00 6.8 31 Nordeste 52 Nordeste 0 -- -- 100
2019-04-13 09:00:00 6.2 41 Nordeste 62 Nordeste 0 -- -- 100
2019-04-13 08:00:00 5.8 46 Nordeste 69 Nordeste 0 -- -- 100
2019-04-13 07:00:00 6.1 42 Nordeste 61 Nordeste 0.2 -- -- 100
2019-04-13 06:00:00 6.4 40 Nordeste 65 Nordeste 0 -- -- 100
2019-04-13 05:00:00 6.2 44 Nordeste 64 Nordeste 0 -- -- 100
2019-04-13 04:00:00 6.4 45 Nordeste 65 Nordeste 0.2 -- -- 100
2019-04-13 03:00:00 6.3 41 Nordeste 59 Nordeste 0 -- -- 100
2019-04-13 02:00:00 5.7 41 Nordeste 59 Nordeste 0 -- -- 100
2019-04-13 01:00:00 5.6 44 Nordeste 63 Nordeste 0 -- -- 100
2019-04-13 00:00:00 6.7 46 Nordeste 63 Nordeste 0 -- -- 85
2019-04-12 23:00:00 7 48 Nordeste 66 Nordeste 0 -- -- 70
2019-04-12 22:00:00 7.1 51 Nordeste 65 Nordeste 0 -- -- 65
2019-04-12 21:00:00 7.4 49 Nordeste 65 Nordeste 0 -- -- 58
2019-04-12 20:00:00 6.5 43 Nordeste 59 Nordeste 0 -- -- 83
2019-04-12 19:00:00 6.9 41 Nordeste 57 Nordeste 0 -- -- 65
2019-04-12 18:00:00 7.3 37 Nordeste 53 Nordeste 0 -- -- 83
2019-04-12 17:00:00 7.5 35 Nordeste 51 Nordeste 0 -- -- 92
2019-04-12 16:00:00 9.8 17 Nordeste 39 Nordeste 0 -- -- 86
2019-04-12 15:00:00 10 26 Nordeste 48 Nordeste 0 -- -- 66
2019-04-12 14:00:00 7.7 37 Nordeste 62 Nordeste 0 -- -- 100
2019-04-12 13:00:00 6.3 41 Nordeste 58 Nordeste 0 -- -- 100
2019-04-12 12:00:00 7 38 Nordeste 54 Nordeste 0 -- -- 100
2019-04-12 11:00:00 6.4 39 Nordeste 58 Nordeste 0 -- -- 100
2019-04-12 10:00:00 5.7 43 Nordeste 62 Nordeste 0 -- -- 100
2019-04-12 09:00:00 5.5 47 Nordeste 62 Nordeste 0 -- -- 100
2019-04-12 08:00:00 5.2 40 Nordeste 63 Nordeste 0 -- -- 100
2019-04-12 07:00:00 4.8 44 Nordeste 60 Nordeste 0 -- -- 100
2019-04-12 06:00:00 4.4 46 Nordeste 68 Nordeste 0 -- -- 100
2019-04-12 05:00:00 5.1 50 Nordeste 73 Nordeste 0 -- -- 100
2019-04-12 04:00:00 5.2 47 Nordeste 71 Nordeste 0.2 -- -- 100
2019-04-12 03:00:00 4.7 48 Nordeste 66 Nordeste 0 -- -- 100
2019-04-12 02:00:00 4.7 41 Nordeste 57 Nordeste 0 -- -- 100
2019-04-12 01:00:00 5 41 Nordeste 65 Nordeste 0 -- -- 100
2019-04-12 00:00:00 5.8 46 Nordeste 63 Nordeste 0 -- -- 100
2019-04-11 23:00:00 4.9 45 Nordeste 58 Nordeste 0 -- -- 100
2019-04-11 22:00:00 5.7 35 Nordeste 58 Nordeste 0 -- -- 100
2019-04-11 21:00:00 5.3 42 Nordeste 57 Nordeste 0 -- -- 100
2019-04-11 20:00:00 6.6 40 Nordeste 55 Nordeste 0 -- -- 80
2019-04-11 19:00:00 6.1 38 Nordeste 56 Nordeste 0 -- -- 98
2019-04-11 18:00:00 7.3 35 Nordeste 52 Nordeste 0 -- -- 82
2019-04-11 17:00:00 7.8 36 Nordeste 54 Nordeste 0 -- -- 74
2019-04-11 16:00:00 8 35 Nordeste 50 Nordeste 0 -- -- 91
2019-04-11 15:00:00 8.1 37 Nordeste 54 Nordeste 0 -- -- 89
2019-04-11 14:00:00 8.2 35 Nordeste 53 Nordeste 0 -- -- 94
2019-04-11 13:00:00 6.9 37 Nordeste 53 Este 0 -- -- 100
2019-04-11 12:00:00 6.3 38 Nordeste 54 Nordeste 0 -- -- 100
2019-04-11 11:00:00 5.8 37 Nordeste 53 Nordeste 0 -- -- 100
2019-04-11 10:00:00 5.1 36 Nordeste 53 Nordeste 0 -- -- 100
2019-04-11 09:00:00 5.1 36 Nordeste 57 Nordeste 0 -- -- 100
2019-04-11 08:00:00 4.8 43 Nordeste 54 Nordeste 0 -- -- 100
2019-04-11 07:00:00 4.2 36 Nordeste 50 Nordeste 0 -- -- 100
2019-04-11 06:00:00 3.9 38 Nordeste 50 Nordeste 0 -- -- 100
2019-04-11 05:00:00 5 39 Nordeste 49 Nordeste 0 -- -- 100
2019-04-11 04:00:00 5.1 39 Nordeste 51 Nordeste 0.2 -- -- 100
2019-04-11 03:00:00 4.5 39 Nordeste 51 Nordeste 0 -- -- 100
2019-04-11 02:00:00 4.8 40 Nordeste 50 Nordeste 0 -- -- 100
2019-04-11 01:00:00 5.2 35 Nordeste 52 Nordeste 0 -- -- 100
2019-04-11 00:00:00 5.1 39 Nordeste 49 Nordeste 0 -- -- 100
2019-04-10 23:00:00 5.3 34 Nordeste 50 Nordeste 0 -- -- 100
2019-04-10 22:00:00 5 39 Nordeste 50 Nordeste 0 -- -- 100
2019-04-10 21:00:00 5.7 38 Nordeste 53 Nordeste 0 -- -- 100
2019-04-10 20:00:00 5.6 36 Nordeste 52 Nordeste 0 -- -- 100
2019-04-10 19:00:00 5.9 36 Nordeste 55 Nordeste 0 -- -- 100
2019-04-10 18:00:00 6.5 33 Nordeste 46 Nordeste 0 -- -- 100
2019-04-10 17:00:00 7.3 28 Nordeste 45 Nordeste 0 -- -- 100
2019-04-10 16:00:00 7.4 31 Nordeste 44 Nordeste 0 -- -- 100
2019-04-10 15:00:00 7.3 21 Nordeste 32 Nordeste 0 -- -- 100
2019-04-10 14:00:00 7.4 12 Este 46 Nordeste 0 -- -- 100
2019-04-10 13:00:00 6.7 37 Nordeste 50 Nordeste 0 -- -- 100
2019-04-10 12:00:00 6.6 38 Nordeste 49 Nordeste 0 -- -- 100
2019-04-10 11:00:00 6.4 33 Nordeste 46 Nordeste 0 -- -- 100
2019-04-10 10:00:00 5.9 35 Nordeste 53 Nordeste 0 -- -- 100
2019-04-10 09:00:00 4.9 40 Nordeste 59 Nordeste 0 -- -- 100
2019-04-10 08:00:00 4.7 40 Nordeste 54 Nordeste 0.2 -- -- 100
2019-04-10 07:00:00 4.5 33 Nordeste 45 Este 0 -- -- 100
2019-04-10 06:00:00 5.3 35 Nordeste 54 Nordeste 0 -- -- 100
2019-04-10 05:00:00 -- 31 Nordeste 52 Nordeste 0 -- -- --
2019-04-10 04:00:00 5.3 36 Nordeste 51 Nordeste 0 -- -- 100
2019-04-10 03:00:00 4.7 38 Nordeste 57 Nordeste 0 -- -- 100
2019-04-10 02:00:00 4.8 40 Nordeste 55 Nordeste 0.2 -- -- 100
2019-04-10 01:00:00 5.4 38 Nordeste 53 Nordeste 0 -- -- 100
2019-04-10 00:00:00 5.7 37 Nordeste 53 Nordeste 0 -- -- 100
2019-04-09 23:00:00 5.9 41 Nordeste 53 Nordeste 0 -- -- 100
2019-04-09 22:00:00 7 33 Nordeste 48 Nordeste 0 -- -- 100
2019-04-09 21:00:00 7.3 30 Nordeste 46 Nordeste 0.2 -- -- 100
2019-04-09 20:00:00 7.2 27 Nordeste 39 Nordeste 0 -- -- 100
2019-04-09 19:00:00 7.7 21 Nordeste 36 Nordeste 0 -- -- 100
2019-04-09 18:00:00 8.4 25 Nordeste 35 Nordeste 0 -- -- 100
2019-04-09 17:00:00 9.3 10 Nordeste 24 Este 0 -- -- 100
2019-04-09 16:00:00 9.7 13 Este 24 Nordeste 0 -- -- 99
2019-04-09 15:00:00 11.4 16 Este 28 Este 0 -- -- 86
2019-04-09 14:00:00 11.1 15 Este 32 Este 0 -- -- 88
2019-04-09 13:00:00 10.8 19 Este 40 Este 0 -- -- 88
2019-04-09 12:00:00 8.9 31 Nordeste 44 Nordeste 0 -- -- 100
2019-04-09 11:00:00 7.5 28 Nordeste 41 Nordeste 0 -- -- 100
2019-04-09 10:00:00 6.5 30 Nordeste 41 Nordeste 0 -- -- 100
2019-04-09 09:00:00 5.7 32 Nordeste 38 Nordeste 0 -- -- 100
2019-04-09 08:00:00 5.6 25 Nordeste 33 Nordeste 0 -- -- 100
2019-04-09 07:00:00 5.4 22 Nordeste 29 Nordeste 0 -- -- 100
2019-04-09 06:00:00 5.1 20 Nordeste 24 Nordeste 0 -- -- 100
2019-04-09 05:00:00 6 20 Este 23 Este 0 -- -- 82
2019-04-09 04:00:00 4.6 21 Este 24 Este 0 -- -- 96
2019-04-09 03:00:00 6.2 19 Nordeste 22 Este 0 -- -- 74
2019-04-09 02:00:00 7.7 11 Este 25 Este 0 -- -- 49
2019-04-09 01:00:00 7.7 24 Este 33 Nordeste 0 -- -- 40
2019-04-09 00:00:00 5.3 25 Este 33 Este 0 -- -- 100
2019-04-08 23:00:00 5 19 Este 32 Este 0 -- -- 100
2019-04-08 22:00:00 7 30 Nordeste 34 Nordeste 0 -- -- 57
2019-04-08 21:00:00 5.7 19 Nordeste 31 Nordeste 0 -- -- 100
2019-04-08 20:00:00 6.3 23 Nordeste 28 Nordeste 0 -- -- 100
2019-04-08 19:00:00 8.3 10 Este 17 Este 0 -- -- 95
2019-04-08 18:00:00 10.5 4 Nordeste 17 Este 0 -- -- 88
2019-04-08 17:00:00 11.2 5 Este 13 Noroeste 0 -- -- 88
2019-04-08 16:00:00 11.6 4 Este 12 Nordeste 0 -- -- 86
2019-04-08 15:00:00 12.6 4 Este 13 Oeste 0 -- -- 87
2019-04-08 14:00:00 11.8 6 Oeste 14 Sur 0 -- -- 94
2019-04-08 13:00:00 10.5 8 Oeste 13 Sudoeste 0 -- -- 100
2019-04-08 12:00:00 10.1 3 Sudoeste 11 Este 0 -- -- 100
2019-04-08 11:00:00 8.9 6 Este 13 Nordeste 0 -- -- 100
2019-04-08 10:00:00 6.2 6 Norte 12 Norte 0 -- -- 100
2019-04-08 09:00:00 6.3 3 Nordeste 11 Oeste 0 -- -- 100
2019-04-08 08:00:00 4.9 6 Oeste 14 Norte 0 -- -- 100
2019-04-08 07:00:00 6.4 11 Norte 19 Norte 0.2 -- -- 100
2019-04-08 06:00:00 6.2 13 Nordeste 18 Nordeste 0 -- -- 100
2019-04-08 05:00:00 5.6 8 Norte 20 Norte 0 -- -- 100
2019-04-08 04:00:00 6.1 14 Nordeste 22 Nordeste 0 -- -- 100
2019-04-08 03:00:00 6.3 12 Norte 22 Nordeste 0 -- -- 100
2019-04-08 02:00:00 5.7 13 Nordeste 21 Nordeste 0 -- -- 100
2019-04-08 01:00:00 6.2 19 Nordeste 23 Nordeste 0 -- -- 100
2019-04-08 00:00:00 7.6 18 Nordeste 24 Nordeste 0 -- -- 82
2019-04-07 23:00:00 6.6 18 Nordeste 22 Nordeste 0 -- -- 89
2019-04-07 22:00:00 5.8 14 Nordeste 22 Nordeste 0 -- -- 100
2019-04-07 21:00:00 6.5 9 Norte 13 Norte 0 -- -- 83
2019-04-07 20:00:00 8 6 Noroeste 14 Oeste 0 -- -- 99
2019-04-07 19:00:00 11.4 10 Oeste 21 Oeste 0 -- -- 85
2019-04-07 18:00:00 13.4 14 Sudoeste 22 Oeste 0 -- -- 76
2019-04-07 17:00:00 14.5 10 Oeste 22 Noroeste 0 -- -- 72
2019-04-07 16:00:00 14.1 9 Sudoeste 17 Oeste 0 -- -- 80
2019-04-07 15:00:00 13.2 9 Oeste 18 Oeste 0 -- -- 81
2019-04-07 14:00:00 11.2 10 Sudoeste 15 Sudoeste 0 -- -- 90
2019-04-07 13:00:00 10.9 7 Sudoeste 15 Sudoeste 0 -- -- 88
2019-04-07 12:00:00 10.5 3 Oeste 9 Sudeste 0 -- -- 89
2019-04-07 11:00:00 8.2 3 Noroeste 7 Oeste 0 -- -- 96
2019-04-07 10:00:00 6.7 3 Sudoeste 8 Oeste 0 -- -- 97
2019-04-07 09:00:00 7.2 4 Sur 6 Sudeste 0 -- -- 88
2019-04-07 08:00:00 6.3 8 Sudeste 10 Sudeste 0 -- -- 80
2019-04-07 07:00:00 6.5 9 Sudeste 12 Sudeste 0 -- -- 78
2019-04-07 06:00:00 6.7 11 Sudeste 16 Sudeste 0 -- -- 75
2019-04-07 05:00:00 7 4 Sudoeste 9 Sudeste 0 -- -- 72
2019-04-07 04:00:00 6 8 Sudeste 18 Este 0 -- -- 91
2019-04-07 03:00:00 6.3 13 Este 25 Este 0 -- -- 79
2019-04-07 02:00:00 6 17 Este 27 Nordeste 0 -- -- 93
2019-04-07 01:00:00 4.1 27 Nordeste 36 Nordeste 0 -- -- 100
2019-04-07 00:00:00 5.5 29 Nordeste 41 Nordeste 0 -- -- 100
2019-04-06 23:00:00 5.5 31 Nordeste 41 Nordeste 0 -- -- 100
2019-04-06 22:00:00 4.9 29 Nordeste 36 Nordeste 0 -- -- 100
2019-04-06 21:00:00 4.5 29 Nordeste 36 Nordeste 0 -- -- 100
2019-04-06 20:00:00 5.2 26 Nordeste 36 Nordeste 0 -- -- 100
2019-04-06 19:00:00 5.7 28 Nordeste 45 Nordeste 0 -- -- 100
2019-04-06 18:00:00 6.1 28 Nordeste 40 Este 0 -- -- 100
2019-04-06 17:00:00 7 22 Nordeste 32 Nordeste 0 -- -- 100
2019-04-06 16:00:00 6.7 27 Nordeste 42 Nordeste 0 -- -- 100
2019-04-06 15:00:00 6.6 27 Nordeste 45 Nordeste 0 -- -- 100
2019-04-06 14:00:00 6.1 33 Nordeste 49 Nordeste 0 -- -- 100
2019-04-06 13:00:00 5.7 34 Nordeste 60 Nordeste 0 -- -- 100
2019-04-06 12:00:00 5.1 38 Nordeste 57 Nordeste 0 -- -- 100
2019-04-06 11:00:00 4.9 33 Nordeste 60 Nordeste 0 -- -- 100
2019-04-06 10:00:00 4.5 34 Nordeste 63 Nordeste 0 -- -- 100
2019-04-06 09:00:00 3.9 36 Nordeste 60 Norte 0 -- -- 100
2019-04-06 08:00:00 4.6 37 Nordeste 60 Nordeste 0 -- -- 100
2019-04-06 07:00:00 4 41 Norte 57 Norte 0 -- -- 100
2019-04-06 06:00:00 3.6 43 Norte 54 Norte 0.2 -- -- 100
2019-04-06 05:00:00 4.2 34 Norte 54 Nordeste 0 -- -- 100
2019-04-06 04:00:00 5 41 Nordeste 62 Nordeste 0.2 -- -- 100
2019-04-06 03:00:00 4.9 33 Nordeste 68 Nordeste 0 -- -- 100
2019-04-06 02:00:00 4.5 37 Nordeste 70 Nordeste 0.2 -- -- 100
2019-04-06 01:00:00 5.6 36 Nordeste 67 Norte 0.2 -- -- 100
2019-04-06 00:00:00 4.8 37 Norte 68 Norte 0.2 -- -- 100
2019-04-05 23:00:00 5.1 37 Norte 78 Norte 0 -- -- 100
2019-04-05 22:00:00 4.7 46 Norte 72 Norte 0 -- -- 100
2019-04-05 21:00:00 5.2 52 Norte 80 Norte 0 -- -- 100
2019-04-05 20:00:00 4.9 54 Norte 75 Norte 0 -- -- 100
2019-04-05 19:00:00 5.5 47 Norte 69 Norte 0 -- -- 100
2019-04-05 18:00:00 6.1 42 Norte 64 Norte 0.2 -- -- 100
2019-04-05 17:00:00 6.1 46 Norte 66 Norte 0 -- -- 100
2019-04-05 16:00:00 7 33 Norte 53 Norte 0 -- -- 100
2019-04-05 15:00:00 6.9 28 Norte 45 Norte 0 -- -- 100
2019-04-05 14:00:00 6.5 28 Norte 46 Norte 0 -- -- 100
2019-04-05 13:00:00 6.4 27 Norte 55 Norte 0 -- -- 100
2019-04-05 12:00:00 6 34 Norte 51 Norte 0 -- -- 100
2019-04-05 11:00:00 5.7 34 Norte 55 Norte 0 -- -- 100
2019-04-05 10:00:00 4.8 39 Norte 61 Norte 0 -- -- 100
2019-04-05 09:00:00 4.2 38 Norte 59 Norte 0 -- -- 100
2019-04-05 08:00:00 4.4 42 Norte 59 Norte 0 -- -- 100
2019-04-05 07:00:00 4.6 36 Norte 54 Norte 0 -- -- 100
2019-04-05 06:00:00 4.3 42 Norte 59 Norte 0 -- -- 100
2019-04-05 05:00:00 4.4 35 Norte 53 Nordeste 0 -- -- 100
2019-04-05 04:00:00 4.3 33 Norte 51 Norte 0 -- -- 100
2019-04-05 03:00:00 4.3 37 Norte 53 Norte 0.2 -- -- 100
2019-04-05 02:00:00 5.7 28 Norte 66 Norte 0.2 -- -- 100
2019-04-05 01:00:00 4.7 41 Norte 55 Norte 0 -- -- 100
2019-04-05 00:00:00 5.2 36 Norte 56 Norte 0 -- -- 100
2019-04-04 23:00:00 5.2 36 Norte 51 Norte 0 -- -- 100
2019-04-04 22:00:00 5.4 28 Nordeste 46 Norte 0.2 -- -- 100
2019-04-04 21:00:00 5.5 22 Nordeste 45 Nordeste 0 -- -- 100
2019-04-04 20:00:00 5.8 21 Norte 38 Nordeste 0.2 -- -- 100
2019-04-04 19:00:00 6.3 17 Nordeste 43 Nordeste 0.2 -- -- 100
2019-04-04 18:00:00 6.1 19 Nordeste 41 Nordeste 0 -- -- 100
2019-04-04 17:00:00 6.3 14 Nordeste 39 Norte 0 -- -- 100
2019-04-04 16:00:00 6.8 26 Nordeste 50 Nordeste 0 -- -- 100
2019-04-04 15:00:00 7.3 23 Nordeste 51 Norte 0 -- -- 100
2019-04-04 14:00:00 6.6 28 Norte 52 Norte 0 -- -- 100
2019-04-04 13:00:00 6.3 28 Norte 57 Norte 0 -- -- 100
2019-04-04 12:00:00 6 35 Nordeste 59 Nordeste 0 -- -- 100
2019-04-04 11:00:00 5.8 38 Nordeste 64 Nordeste 0.6 -- -- 100
2019-04-04 10:00:00 5.4 32 Norte 68 Norte 0 -- -- 100
2019-04-04 09:00:00 5.3 44 Norte 63 Norte 0.2 -- -- 100
2019-04-04 08:00:00 5.2 48 Norte 65 Norte 0.2 -- -- 100
2019-04-04 07:00:00 5.4 40 Norte 53 Noroeste 0.6 -- -- 100
2019-04-04 06:00:00 5.3 29 Norte 53 Noroeste 0 -- -- 100
2019-04-04 05:00:00 5 32 Norte 43 Noroeste 0 -- -- 100
2019-04-04 04:00:00 5.1 19 Norte 28 Norte 0.2 -- -- 100
2019-04-04 03:00:00 4.7 18 Noroeste 29 Noroeste 0.2 -- -- 100
2019-04-04 02:00:00 4.2 22 Noroeste 38 Oeste 0.4 -- -- 100
2019-04-04 01:00:00 4.7 25 Noroeste 41 Oeste 0 -- -- 100
2019-04-04 00:00:00 4.7 29 Noroeste 37 Noroeste 0 -- -- 100
2019-04-03 23:00:00 5.1 24 Noroeste 40 Oeste 0 -- -- 100
2019-04-03 22:00:00 5.3 32 Oeste 48 Noroeste 0 -- -- 100
2019-04-03 21:00:00 5 35 Noroeste 45 Noroeste 0 -- -- 100
2019-04-03 20:00:00 5.6 24 Noroeste 44 Noroeste 0 -- -- 100
2019-04-03 19:00:00 6.5 20 Noroeste 36 Noroeste 0 -- -- 100
2019-04-03 18:00:00 7.1 24 Noroeste 49 Oeste 0 -- -- 100
2019-04-03 17:00:00 6.6 35 Oeste 50 Oeste 0 -- -- 99
2019-04-03 16:00:00 7.7 27 Oeste 42 Noroeste 0 -- -- 100
2019-04-03 15:00:00 8.1 24 Oeste 38 Noroeste 0 -- -- 95
2019-04-03 14:00:00 7.9 14 Noroeste 31 Noroeste 0 -- -- 94
2019-04-03 13:00:00 7.3 14 Noroeste 33 Oeste 0 -- -- 100
2019-04-03 12:00:00 5.9 23 Oeste 42 Oeste 0 -- -- 100
2019-04-03 11:00:00 5.2 22 Noroeste 34 Noroeste 0 -- -- 100
2019-04-03 10:00:00 5.4 18 Noroeste 29 Noroeste 0 -- -- 100
2019-04-03 09:00:00 4.5 23 Norte 33 Norte 0.2 -- -- 100
2019-04-03 08:00:00 4 28 Noroeste 33 Noroeste 0 -- -- 100
2019-04-03 07:00:00 4.5 16 Norte 25 Noroeste 0 -- -- 100
2019-04-03 06:00:00 4.8 15 Noroeste 20 Noroeste 0 -- -- 100
2019-04-03 05:00:00 4.7 13 Noroeste 15 Noroeste 0 -- -- 100
2019-04-03 04:00:00 4.8 7 Sudoeste 9 Sudoeste 0 -- -- 100
2019-04-03 03:00:00 5 5 Sudoeste 10 Sudoeste 0 -- -- 100
2019-04-03 02:00:00 5 4 Oeste 12 Nordeste 0 -- -- 100
2019-04-03 01:00:00 5.1 9 Nordeste 19 Norte 0.2 -- -- 100
2019-04-03 00:00:00 5.5 14 Nordeste 20 Nordeste 0 -- -- 100
2019-04-02 23:00:00 5.5 14 Nordeste 22 Norte 0 -- -- 100
2019-04-02 22:00:00 5.3 10 Nordeste 22 Norte 0 -- -- 100
2019-04-02 21:00:00 6.2 18 Norte 28 Norte 0 -- -- 100
2019-04-02 20:00:00 7 16 Norte 30 Norte 0 -- -- 100
2019-04-02 19:00:00 7.9 16 Norte 28 Nordeste 0 -- -- 100
2019-04-02 18:00:00 8.4 17 Norte 27 Norte 0.2 -- -- 100
2019-04-02 17:00:00 8.6 16 Norte 28 Noroeste 2.2 -- -- 100
2019-04-02 16:00:00 8.5 8 Norte 25 Norte 2 -- -- 100
2019-04-02 15:00:00 9.7 13 Norte 23 Noroeste 1.8 -- -- 100
2019-04-02 14:00:00 8.8 7 Oeste 13 Oeste 0.8 -- -- 100
2019-04-02 13:00:00 7.9 6 Oeste 12 Sur 0.6 -- -- 100
2019-04-02 12:00:00 7.5 8 Sur 18 Sur 0.2 -- -- 100
2019-04-02 11:00:00 7.1 12 Sur 21 Sur 2 -- -- 100
2019-04-02 10:00:00 6.8 15 Sur 26 Sur 1.2 -- -- 100
2019-04-02 09:00:00 6.3 18 Sur 28 Sudeste 0.6 -- -- 100
2019-04-02 08:00:00 5.8 15 Sudeste 26 Sudeste 0.4 -- -- 100
2019-04-02 07:00:00 5.9 13 Sudeste 21 Sudeste 1.8 -- -- 100
2019-04-02 06:00:00 6.4 10 Sudeste 23 Sur 0.2 -- -- 100
2019-04-02 05:00:00 6.1 15 Sudeste 27 Sur 0 -- -- 100
2019-04-02 04:00:00 6.2 18 Sur 29 Sur 0 -- -- 100
2019-04-02 03:00:00 5.5 21 Sur 29 Sur 0 -- -- 100
2019-04-02 02:00:00 5.3 21 Sur 27 Sur 0 -- -- 100
2019-04-02 01:00:00 5.4 17 Sur 22 Sur 0 -- -- 100
2019-04-02 00:00:00 5.3 8 Este 18 Este 0 -- -- 100
2019-04-01 23:00:00 5.4 13 Nordeste 21 Este 0.6 -- -- 100
2019-04-01 22:00:00 6 5 Sur 15 Sur 0 -- -- 100
2019-04-01 21:00:00 6.5 13 Sur 31 Sudoeste 0.4 -- -- 100
2019-04-01 20:00:00 7 18 Sudoeste 31 Sudoeste 4 -- -- 100
2019-04-01 19:00:00 7.3 16 Sur 31 Sur 4.4 -- -- 100
2019-04-01 18:00:00 7.5 11 Sur 23 Sudeste 4.6 -- -- 100
2019-04-01 17:00:00 7.7 11 Sudeste 32 Sudeste 0 -- -- 100
2019-04-01 16:00:00 8.3 15 Sudeste 26 Sur 0 -- -- 100
2019-04-01 15:00:00 8.3 10 Sudeste 21 Sur 0.2 -- -- 100
2019-04-01 14:00:00 8.2 8 Sudeste 17 Sudeste 0 -- -- 100
2019-04-01 13:00:00 8 8 Sudeste 15 Sur 0 -- -- 94
2019-04-01 12:00:00 9.4 6 Sudeste 16 Sur 0 -- -- 92
2019-04-01 11:00:00 9.6 7 Sudeste 17 Sudeste 0 -- -- 90
2019-04-01 10:00:00 8.1 7 Este 12 Este 0 -- -- 89
2019-04-01 09:00:00 6.3 9 Este 12 Este 0 -- -- 95
2019-04-01 08:00:00 5.6 8 Nordeste 12 Nordeste 0 -- -- 100
2019-04-01 07:00:00 5.6 9 Norte 12 Nordeste 0 -- -- 100
2019-04-01 06:00:00 5.8 10 Nordeste 19 Norte 0 -- -- 100
2019-04-01 05:00:00 5.9 14 Nordeste 20 Nordeste 0 -- -- 90
2019-04-01 04:00:00 6.2 15 Nordeste 21 Nordeste 0 -- -- 84
2019-04-01 03:00:00 5.2 15 Nordeste 19 Norte 0 -- -- 98
2019-04-01 02:00:00 5.6 10 Norte 17 Norte 0 -- -- 94
2019-04-01 01:00:00 5.1 14 Nordeste 19 Noroeste 0 -- -- 98
2019-04-01 00:00:00 5.6 16 Noroeste 24 Norte 0 -- -- 98
2019-03-31 23:00:00 6 17 Norte 26 Norte 0 -- -- 100
2019-03-31 22:00:00 6 16 Norte 29 Noroeste 0 -- -- 100
2019-03-31 21:00:00 6.3 14 Norte 20 Norte 0 -- -- 100
2019-03-31 20:00:00 7 11 Norte 23 Noroeste 0 -- -- 98
2019-03-31 19:00:00 9.5 15 Noroeste 26 Oeste 0 -- -- 89
2019-03-31 18:00:00 10.5 17 Noroeste 29 Noroeste 0 -- -- 89
2019-03-31 17:00:00 10 15 Noroeste 24 Noroeste 0 -- -- 93
2019-03-31 16:00:00 9.6 11 Noroeste 28 Noroeste 0 -- -- 90
2019-03-31 15:00:00 9.6 16 Norte 25 Noroeste 0 -- -- 90
2019-03-31 14:00:00 8.5 12 Norte 24 Norte 0 -- -- 100
2019-03-31 13:00:00 9.8 11 Norte 27 Noroeste 0 -- -- 89
2019-03-31 12:00:00 8 20 Norte 33 Norte 0 -- -- 100
2019-03-31 11:00:00 7.2 28 Norte 38 Norte 0 -- -- 100
2019-03-31 10:00:00 6.3 20 Norte 27 Norte 0 -- -- 100
2019-03-31 09:00:00 5.5 15 Noroeste 24 Noroeste 0 -- -- 100
2019-03-31 08:00:00 5.3 21 Noroeste 34 Noroeste 0 -- -- 100
2019-03-31 07:00:00 6.2 24 Noroeste 35 Noroeste 0 -- -- 100
2019-03-31 06:00:00 6.2 21 Norte 31 Norte 0 -- -- 100
2019-03-31 05:00:00 6.2 18 Norte 30 Norte 0 -- -- 100
2019-03-31 04:00:00 5.4 27 Norte 34 Norte 0 -- -- 100
2019-03-31 00:00:00 5.3 18 Norte 27 Norte 0 -- -- 100
2019-03-30 23:00:00 5.6 21 Nordeste 30 Norte 0 -- -- 87
2019-03-30 22:00:00 5.9 24 Norte 29 Norte 0 -- -- 87
2019-03-30 21:00:00 5.9 24 Norte 31 Norte 0 -- -- 84
2019-03-30 20:00:00 5.5 19 Norte 25 Norte 0 -- -- 85
2019-03-30 19:00:00 6.6 14 Norte 22 Noroeste 0 -- -- 83
2019-03-30 18:00:00 8.6 15 Noroeste 22 Norte 0 -- -- 71
2019-03-30 17:00:00 9.1 11 Norte 27 Nordeste 0 -- -- 78
2019-03-30 16:00:00 9.2 14 Norte 25 Norte 0 -- -- 70
2019-03-30 15:00:00 9.4 15 Noroeste 29 Noroeste 0 -- -- 68
2019-03-30 14:00:00 8.7 9 Norte 27 Norte 0 -- -- 84
2019-03-30 13:00:00 8.2 13 Norte 26 Norte 0 -- -- 87
2019-03-30 12:00:00 7.4 15 Norte 33 Norte 0 -- -- 100
2019-03-30 11:00:00 5.6 22 Norte 39 Norte 0 -- -- 100
2019-03-30 10:00:00 5.5 23 Norte 37 Norte 0 -- -- 100
2019-03-30 09:00:00 5.4 28 Norte 42 Norte 0.4 -- -- 100
2019-03-30 08:00:00 4.8 21 Norte 38 Noroeste 0.2 -- -- 100
2019-03-30 07:00:00 4.9 18 Norte 33 Norte 0.4 -- -- 100
2019-03-30 06:00:00 4.9 19 Noroeste 30 Noroeste 0 -- -- 100
2019-03-30 05:00:00 4.6 9 Norte 16 Noroeste 0.4 -- -- 100
2019-03-30 04:00:00 4.7 9 Norte 12 Norte 0 -- -- 92
2019-03-30 03:00:00 4.9 4 Nordeste 14 Nordeste 0 -- -- 88
2019-03-30 02:00:00 4.7 12 Nordeste 17 Nordeste 0 -- -- 90
2019-03-30 01:00:00 4.8 16 Nordeste 18 Nordeste 0 -- -- 91
2019-03-30 00:00:00 5.1 5 Norte 14 Norte 0 -- -- 90
2019-03-29 23:00:00 5.1 13 Noroeste 15 Noroeste 0 -- -- 90
2019-03-29 22:00:00 5.1 12 Noroeste 17 Norte 0 -- -- 96
2019-03-29 21:00:00 5 14 Norte 20 Noroeste 0 -- -- 100
2019-03-29 20:00:00 5.6 9 Noroeste 16 Noroeste 0 -- -- 96
2019-03-29 19:00:00 6.4 6 Noroeste 18 Oeste 0 -- -- 92
2019-03-29 18:00:00 10.3 15 Oeste 24 Oeste 0 -- -- 70
2019-03-29 17:00:00 10.6 19 Oeste 30 Oeste 0 -- -- 79
2019-03-29 16:00:00 12.3 22 Oeste 33 Oeste 0 -- -- 65
2019-03-29 15:00:00 11.9 17 Sudoeste 30 Oeste 0 -- -- 66
2019-03-29 14:00:00 11.3 15 Sudoeste 27 Sudoeste 0 -- -- 72
2019-03-29 13:00:00 10.7 16 Sudoeste 24 Oeste 0 -- -- 85
2019-03-29 12:00:00 8.9 14 Sudoeste 26 Sudoeste 0 -- -- 87
2019-03-29 11:00:00 7.6 10 Sudoeste 16 Sudoeste 0 -- -- 94
2019-03-29 10:00:00 6.9 12 Sudoeste 18 Sudoeste 0 -- -- 86
2019-03-29 09:00:00 6.1 7 Sudoeste 14 Sudoeste 0 -- -- 88
2019-03-29 08:00:00 5.5 11 Oeste 14 Oeste 0 -- -- 93
2019-03-29 07:00:00 5.1 12 Oeste 18 Oeste 0 -- -- 100
2019-03-29 06:00:00 5.4 14 Oeste 18 Oeste 0 -- -- 100
2019-03-29 05:00:00 6 9 Sudoeste 16 Sudoeste 0 -- -- 100
2019-03-29 04:00:00 6 10 Sur 17 Sudeste 0.4 -- -- 100
2019-03-29 03:00:00 6.1 2 Noroeste 10 Sudoeste 0.4 -- -- 100
2019-03-29 02:00:00 5.8 6 Sudoeste 13 Sudeste 0 -- -- 100
2019-03-29 01:00:00 6 5 Sudeste 12 Sudeste 0 -- -- 100
2019-03-29 00:00:00 6.1 4 Sudoeste 7 Sur 0 -- -- 100
2019-03-28 23:00:00 6.4 5 Sur 13 Sur 0 -- -- 100
2019-03-28 22:00:00 6.4 5 Sur 9 Sudoeste 0 -- -- 98
2019-03-28 21:00:00 6.7 5 Oeste 14 Sur 0.2 -- -- 100
2019-03-28 20:00:00 7.1 3 Sur 17 Sudoeste 0 -- -- 100
2019-03-28 19:00:00 7.3 7 Sudoeste 16 Oeste 0.4 -- -- 100
2019-03-28 18:00:00 7.7 8 Sudoeste 13 Sudoeste 0.2 -- -- 100
2019-03-28 17:00:00 8.2 8 Oeste 18 Oeste 0 -- -- 100
2019-03-28 16:00:00 9.4 12 Sudoeste 21 Sudoeste 0 -- -- 100
2019-03-28 15:00:00 7.8 12 Sur 32 Sudoeste 0.6 -- -- 100
2019-03-28 14:00:00 7.3 12 Sudeste 28 Sudeste 3.4 -- -- 100
2019-03-28 13:00:00 7.6 7 Sudeste 16 Sudeste 3.6 -- -- 100
2019-03-28 12:00:00 8.4 5 Sur 17 Sur 0.8 -- -- 100
2019-03-28 11:00:00 8.3 8 Sudeste 13 Sur 0.2 -- -- 97
2019-03-28 10:00:00 8.1 4 Sur 13 Sur 0 -- -- 100
2019-03-28 09:00:00 7.3 4 Sur 12 Sudeste 0 -- -- 100
2019-03-28 08:00:00 6.7 4 Sudeste 10 Sudeste 0 -- -- 100
2019-03-28 07:00:00 6 0 Calma 9 Sur 0.2 -- -- 100
2019-03-28 06:00:00 6.1 4 Este 7 Sur 0 -- -- 100
2019-03-28 05:00:00 6.4 2 Sudeste 5 Nordeste 0 -- -- 97
2019-03-28 04:00:00 6.5 3 Sur 10 Este 0 -- -- 94
2019-03-28 03:00:00 6.6 2 Este 9 Este 0 -- -- 99
2019-03-28 02:00:00 6.5 3 Sur 7 Sur 0 -- -- 100
2019-03-28 01:00:00 6.7 6 Sur 9 Sur 0 -- -- 100
2019-03-28 00:00:00 6.6 6 Sudeste 10 Sudeste 0 -- -- 99
2019-03-27 23:00:00 6.8 2 Sudeste 5 Este 0 -- -- 92
2019-03-27 22:00:00 7.1 2 Este 14 Nordeste 0 -- -- 91
2019-03-27 21:00:00 6.5 8 Nordeste 14 Nordeste 0 -- -- 98
2019-03-27 20:00:00 6.3 8 Nordeste 11 Nordeste 0 -- -- 100
2019-03-27 19:00:00 7 2 Este 16 Nordeste 0 -- -- 95
2019-03-27 18:00:00 7.5 12 Nordeste 22 Oeste 0 -- -- 100
2019-03-27 17:00:00 9.6 12 Oeste 17 Sudoeste 0 -- -- 97
2019-03-27 16:00:00 11.2 8 Oeste 14 Oeste 0 -- -- 91
2019-03-27 15:00:00 10.3 3 Norte 18 Sur 0 -- -- 90
2019-03-27 14:00:00 9.8 7 Oeste 16 Oeste 0 -- -- 100
2019-03-27 13:00:00 9.3 4 Norte 22 Este 0 -- -- 99
2019-03-27 12:00:00 9.1 12 Nordeste 27 Nordeste 0 -- -- 100
2019-03-27 11:00:00 9.7 14 Nordeste 25 Este 0 -- -- 100
2019-03-27 10:00:00 7.8 15 Nordeste 35 Este 0 -- -- 100
2019-03-27 09:00:00 7 16 Nordeste 34 Este 0 -- -- 100
2019-03-27 08:00:00 6.7 20 Nordeste 31 Nordeste 0 -- -- 100
2019-03-27 07:00:00 6.4 20 Nordeste 33 Nordeste 0 -- -- 100
2019-03-27 06:00:00 6.6 23 Nordeste 37 Nordeste 0 -- -- 100
2019-03-27 05:00:00 6.4 26 Nordeste 47 Nordeste 0 -- -- 100
2019-03-27 04:00:00 6.7 28 Nordeste 49 Nordeste 0 -- -- 100
2019-03-27 03:00:00 6.7 31 Nordeste 43 Nordeste 0 -- -- 100
2019-03-27 02:00:00 6.8 26 Nordeste 48 Norte 0 -- -- 100
2019-03-27 01:00:00 7 33 Nordeste 49 Nordeste 0 -- -- 100
2019-03-27 00:00:00 7.2 27 Nordeste 49 Norte 0 -- -- 100